Regional Weather Roundup
Issued by NWS

Home | Current Version | Previous Version | Graphics & Text | Print | Product List | Glossary On
Versions: 1 2 3 4 5 6 7 8 9 10 11 12 13 14 15 16 17 18 19 20 21 22 23 24 25 26 27 28 29 30 31 32 33 34 35 36 37 38 39 40 41 42 43 44 45 46 47 48 49 50
000
ASUS43 KMKX 041500
RWRWI

WISCONSIN REGIONAL WEATHER ROUNDUP
NATIONAL WEATHER SERVICE MILWAUKEE/SULLIVAN WI
1000 AM CDT SAT JUL 04 2015

NOTE: "FAIR" INDICATES FEW OR NO CLOUDS BELOW 12,000 FEET WITH NO
SIGNIFICANT WEATHER AND/OR OBSTRUCTIONS TO VISIBILITY.

WIZ001-002-006>008-014>016-023>028-041600-
NORTHWEST WISCONSIN

CITY           SKY/WX    TMP DP  RH WIND       PRES   REMARKS
SUPERIOR ARPT  SUNNY     64  58  82 NE7       29.97F
ASHLAND        SUNNY     69  64  84 N6        29.98S
HAYWARD        SUNNY     74  59  59 E3        29.97F
SIREN          SUNNY     70  64  80 CALM      29.96S
CUMBERLAND     SUNNY     70  64  83 CALM      29.97S HAZE
RICE LAKE      SUNNY     67  66  96 E3        29.98F
CHETEK         SUNNY     71  65  80 CALM      29.96F
LADYSMITH      SUNNY     71  64  77 CALM      29.99S
EAU CLAIRE     SUNNY     72  61  68 CALM      29.95S
MENOMONIE      SUNNY     71  62  72 CALM      29.97R
NEW RICHMOND   SUNNY     71  65  80 CALM      29.97R
OSCEOLA        SUNNY     72  68  87 CALM      29.98S
$$

WIZ003>005-009-010-017-018-041600-
NORTH CENTRAL WISCONSIN

CITY           SKY/WX    TMP DP  RH WIND       PRES   REMARKS
MANITOWISH WTR SUNNY     67  65  92 CALM      29.99S
ARBOR VITAE    SUNNY     72  67  83 E3        29.99S
WOODRUFF       SUNNY     72  67  83 E3        29.99S
RHINELANDER    SUNNY     71  61  70 E5        30.00S
EAGLE RIVER    SUNNY    N/A N/A N/A E3        29.99F
LAND O LAKES   SUNNY     72  60  67 CALM      30.01S
PHILLIPS       SUNNY     70  63  77 E3        29.98S
TOMAHAWK       SUNNY     65  64  97 CALM      30.00S
MEDFORD        SUNNY     70  63  79 E5        29.99S
MERRILL        SUNNY     67  64  89 CALM      29.99S
$$

WIZ029-030-035-036-043>047-041600-
CENTRAL WISCONSIN

CITY           SKY/WX    TMP DP  RH WIND       PRES   REMARKS
WAUSAU         SUNNY     73  61  65 VRB3      29.96F
MOSINEE        SUNNY     70  63  78 VRB5      29.99S
MARSHFIELD     SUNNY     74  60  61 NE3       29.98S
STEVENS POINT  SUNNY     69  59  70 CALM      29.98S
WAUPACA        SUNNY     74  62  64 CALM      29.97S
WAUTOMA        NOT AVBL
WISC RAPIDS    SUNNY     72  58  61 CALM      29.99S
CAMP DOUGLAS   NOT AVBL
$$

WIZ011>013-019>022-031-037>040-048>050-041600-
NORTHEAST WISCONSIN

CITY           SKY/WX    TMP DP  RH WIND       PRES   REMARKS
ANTIGO         SUNNY     70  62  76 E5        29.99S
SHAWANO        SUNNY     72  61  69 NE5       29.97S
OCONTO         SUNNY     69  62  77 E8        29.97S
STURGEON BAY   SUNNY     70  61  73 E3        30.00R
GREEN BAY      SUNNY     74  62  66 VRB3      29.97S
MANITOWOC      NOT AVBL
APPLETON       SUNNY     72  61  68 CALM      29.98R
CLINTONVILLE   SUNNY     70  59  68 NE3       29.97S
OSHKOSH        SUNNY     74  59  59 W5        29.97S
$$

WIZ032>034-041-042-053>061-041600-
SOUTHWEST WISCONSIN

CITY           SKY/WX    TMP DP  RH WIND       PRES   REMARKS
LA CROSSE      SUNNY     71  59  65 SE5       29.96F
SPARTA         SUNNY     72  58  61 CALM      29.98S
VIROQUA        SUNNY     71  58  62 CALM      30.00S
BOSCOBEL       SUNNY     72  61  68 VRB3      29.99S
PRAIRIE DU CHI SUNNY     68  60  74 CALM      29.99S
PLATTEVILLE    SUNNY     70  61  71 W5        30.00S
$$

WIZ056-057-062-063-064-067-068-041600-
SOUTH CENTRAL WISCONSIN

CITY           SKY/WX    TMP DP  RH WIND       PRES   REMARKS
REEDSBURG      SUNNY     70  60  72 SW3       29.98S
BARABOO/DELLS  MOSUNNY   71  59  66 CALM      29.99R
LONE ROCK      NOT AVBL
MINERAL POINT  SUNNY     72  61  68 W5        30.01S
MADISON        SUNNY     73  60  63 CALM      29.99R
MIDDLETON      SUNNY     72  59  64 CALM      30.00S
WATERTOWN      SUNNY     70  63  80 CALM      29.99R
MONROE         SUNNY     70  59  68 W9        30.00S
JANESVILLE     SUNNY     72  59  64 W3        29.99S
$$

WIZ051-052-058>065-066-070>072-041600-
SOUTHEAST WISCONSIN

CITY           SKY/WX    TMP DP  RH WIND       PRES   REMARKS
MILWAUKEE      PTSUNNY   75  58  55 W8        29.98S
WAUKESHA       SUNNY     70  57  64 W7        30.00S
MILWAUKEE/TIMM SUNNY     73  57  56 W6        29.99S
RACINE         SUNNY     74  58  57 W6        30.00S
BURLINGTON     SUNNY     71  58  63 W5        29.99S
KENOSHA        SUNNY     74  59  59 NW5       29.99S
FOND DU LAC    SUNNY     74  63  68 VRB5      29.98S
SHEBOYGAN      SUNNY     75  61  61 W6        29.97S
WEST BEND      SUNNY     72  57  60 W5        29.98S
JUNEAU         SUNNY     69  61  74 W3        30.00S
$$

LSZ147-162-041600-
LAKE SUPERIOR

STATION/POSITION TIME  TEMP    WIND        PRES    WAVE
                       AIR SEA DIR/SP/G            HT/PER
                 (UTC) (F)     (DEG/KT/KT) (MB)    (FT/S)
W MID LAKE BUOY  1350   42 39   40/  6/  6 1016.0R   0
DEVILS ISLAND    1400   58      70/  7/  9 1015.5S
SAXON HARBOR     1440   62      CALM  /  5 1014.9R
$$

LMZ867-665-643>646-041600-
LAKE MICHIGAN

STATION/POSITION TIME  TEMP    WIND        PRES    WAVE
                       AIR SEA DIR/SP/G            HT/PER
                 (UTC) (F)     (DEG/KT/KT) (MB)    (FT/S)
CHAMBERS ISLAND  1400   64      20/  7/  8 1014.9S
N MID LAKE BUOY  1350   49 44  360/  6/  6 1014.8R   1/ 3
NORTHPORT PIER   1400   63      80/  5/  6 1014.9R
SISTER BAY       1344   71     130/  8/ 13   N/A
ALGOMA LAKESHORE 1410           70/ 10/ 11   N/A
KEWAUNEE LAKESHO 1400   70      40/  2/  6 1014.0R
SHEBOYGAN LAKESH 1400   71     290/  8/ 11 1014.7R
PORT WASHINGTON  1400   73     290/  5/  9 1015.6
ATWATER BUOY     1400   66 59  270/  6/  6 1016.5R
MILWAUKEE LAKESH 1400   71     280/  7/  9   N/A
KENOSHA   LAKESH 1400   71     280/  7/  9 1014.9S
$$

TC  - TEMPERATURE IN CELSIUS
VSB - VISIBILITY IN STATUTE MILES
WCI - WIND CHILL INDEX
HX  - HEAT INDEX



USA.gov is the U.S. government's official web portal to all federal, state and local government web resources and services.